[[{"header":{"parameterUnit":"m.s-1","parameterCategory":1,"la1":30.2991,"la2":30.254,"lo1":-89.0895,"lo2":-89.0444,"dy":0.0017,"dx":0.0017,"nx":28,"ny":28,"refTime":"2025-03-13T21:00:00:Z","depth":0,"parameterNumber":2,"parameterNumberName":"U-component_of_WINDS"},"data":[0,0,0,0,0,0,0,0,0,0,0,0,0,0,0,0,0,0,0,0,0,0,0,0,0,0,0,0,0,0,0,0,0,0,0,0,0,0,0,0,0,0,0,0,0,0,0,0,0,0,0,0,0,0,0,0,0,0,-1.9069,-1.9069,0,-1.9072,-1.9072,-1.9072,-1.9063,-1.9062,-1.9062,-1.9062,-1.9064,-1.9065,-1.9065,0,0,0,0,0,0,0,0,0,0,0,0,0,-1.9056,-1.9056,-1.9069,-1.9069,-1.9069,-1.9072,-1.9072,-1.9072,-1.9063,-1.9062,-1.9062,-1.9062,-1.9064,-1.9065,-1.9065,0,0,0,0,0,0,0,0,0,0,0,0,0,-1.906,-1.9056,-1.9069,-1.9065,-1.9064,-1.9072,-1.9072,-1.9072,-1.9063,-1.9062,-1.9062,-1.9061,-1.9064,-1.9065,-1.9065,-1.9076,0,0,-1.9067,-1.9067,0,0,0,0,0,0,0,0,-1.906,-1.9061,-1.9065,-1.9065,-1.9064,-1.9066,-1.9068,-1.9073,-1.9063,-1.9063,-1.9062,-1.9061,-1.9065,-1.9066,-1.9067,-1.9077,-1.9077,-1.9067,-1.9067,-1.9067,-1.9067,0,0,0,0,0,0,0,-1.906,-1.9061,-1.907,-1.9065,-1.9065,-1.9063,-1.9063,-1.9069,-1.9067,-1.9063,-1.9063,-1.9063,-1.9065,-1.9067,-1.9067,-1.9077,-1.9067,-1.9067,-1.9067,-1.9068,-1.9096,-1.9097,0,0,0,0,0,0,-1.906,-1.906,-1.907,-1.907,-1.9061,-1.9063,-1.9064,-1.9066,-1.9066,-1.9066,-1.9063,-1.9063,-1.9066,-1.9067,-1.9067,-1.908,-1.9067,-1.9068,-1.9068,-1.9096,-1.9096,-1.9097,0,0,0,0,0,0,-1.906,-1.9061,-1.907,-1.9065,-1.9066,-1.9064,-1.9067,-1.9066,-1.9068,-1.9067,-1.9066,-1.9065,-1.9066,-1.9067,-1.9074,-1.908,-1.9068,-1.9068,-1.9095,-1.9096,-1.9097,-1.9107,0,0,0,0,0,0,-1.9059,-1.9061,-1.9065,-1.9065,-1.9066,-1.9076,-1.9067,-1.9067,-1.9069,-1.9068,-1.9068,-1.9068,-1.9065,-1.9074,-1.9075,-1.9081,-1.9069,-1.9095,-1.9096,-1.9096,-1.9106,-1.9108,-1.911,0,0,0,0,0,-1.9059,-1.9067,-1.9065,-1.9066,-1.9071,-1.9077,-1.9077,-1.9074,-1.9069,-1.9074,-1.9073,-1.9068,-1.908,-1.9075,-1.9076,-1.9082,-1.9094,-1.9095,-1.9096,-1.9105,-1.9108,-1.911,0,0,0,0,0,0,-1.9067,-1.9067,-1.9065,-1.9074,-1.9075,-1.9075,-1.908,-1.9077,-1.908,-1.9079,-1.9075,-1.9075,-1.9084,-1.9084,-1.9078,-1.9093,-1.9086,-1.9088,-1.9093,-1.9095,-1.9097,-1.9096,-1.9069,0,0,0,0,0,-1.9071,-1.9075,-1.9075,-1.9083,-1.9084,-1.9082,-1.9084,-1.9082,-1.9084,-1.9084,-1.9084,-1.9086,-1.909,-1.9093,-1.9096,-1.9107,-1.9107,-1.9112,-1.9114,-1.9115,-1.9116,-1.9122,-1.9124,-1.91,-1.91,-1.91,0,0,-1.9076,-1.9077,-1.908,-1.9084,-1.9085,-1.909,-1.9083,-1.9088,-1.9092,-1.9085,-1.9092,-1.9093,-1.9094,-1.9104,-1.9108,-1.9104,-1.9123,-1.9116,-1.9118,-1.9118,-1.9123,-1.9125,-1.9127,-1.9101,-1.9101,-1.9101,0,0,-1.909,-1.9091,-1.9098,-1.9099,-1.9101,-1.91,-1.9102,-1.9103,-1.9103,-1.911,-1.9105,-1.911,-1.9117,-1.9119,-1.912,-1.9136,-1.9132,-1.9137,-1.9146,-1.9152,-1.9154,-1.9155,-1.916,-1.9162,-1.9139,-1.9139,-1.9139,0,-1.9097,-1.9104,-1.9101,-1.9107,-1.911,-1.9105,-1.9112,-1.9113,-1.9116,-1.9118,-1.9114,-1.9123,-1.9124,-1.9134,-1.9138,-1.914,-1.9141,-1.9137,-1.9154,-1.9155,-1.9157,-1.9162,-1.9164,-1.9139,-1.9139,-1.9139,-1.9139,0,-1.9113,-1.9118,-1.9123,-1.9126,-1.9129,-1.9136,-1.9135,-1.9138,-1.9136,-1.9136,-1.9144,-1.9145,-1.9149,-1.9151,-1.9149,-1.9161,-1.9158,-1.9154,-1.9147,-1.916,-1.9164,-1.9166,-1.914,-1.914,-1.914,-1.914,0,0,-1.913,-1.9133,-1.9135,-1.9136,-1.9139,-1.9143,-1.915,-1.9154,-1.9157,-1.916,-1.9165,-1.9172,-1.9168,-1.917,-1.9169,-1.9174,-1.9186,-1.9169,-1.9169,-1.9171,-1.9199,-1.9201,-1.9204,-1.9184,-1.9184,-1.9184,-1.9198,0,-1.9142,-1.9153,-1.9152,-1.9163,-1.9168,-1.9164,-1.917,-1.9172,-1.9172,-1.9177,-1.9177,-1.9182,-1.9177,-1.9178,-1.9183,-1.9183,-1.9191,-1.9182,-1.9188,-1.9188,-1.9187,-1.9206,-1.9208,-1.9222,-1.92,-1.9201,-1.9201,0,-1.9158,-1.9162,-1.9173,-1.9176,-1.9178,-1.9183,-1.9187,-1.9191,-1.9194,-1.9194,-1.9197,-1.9195,-1.9202,-1.9195,-1.9205,-1.9199,-1.9202,-1.9202,-1.9203,-1.9202,-1.9195,-1.9205,-1.9226,-1.9228,-1.9204,-1.9203,-1.9203,0,-1.9169,-1.9177,-1.9185,-1.9187,-1.919,-1.9194,-1.9195,-1.9198,-1.9201,-1.9205,-1.9206,-1.9211,-1.9214,-1.9217,-1.9217,-1.9212,-1.9226,-1.922,-1.9226,-1.9226,-1.9228,-1.9228,-1.9249,-1.9232,-1.9232,-1.9232,-1.9232,0,-1.9183,-1.919,-1.919,-1.9195,-1.9202,-1.9201,-1.9209,-1.921,-1.9213,-1.9218,-1.9215,-1.922,-1.9219,-1.9224,-1.9224,-1.9232,-1.9233,-1.9233,-1.9233,-1.9233,-1.9233,-1.9233,-1.9232,-1.9232,-1.9232,-1.9232,-1.9232,0,-1.9196,-1.9196,-1.9204,-1.9207,-1.9208,-1.9214,-1.9216,-1.9221,-1.9221,-1.9228,-1.9229,-1.923,-1.9236,-1.9236,-1.9242,-1.9242,-1.9252,-1.9251,-1.9251,-1.925,-1.9256,-1.9256,-1.9278,-1.928,-1.9262,-1.9262,-1.9263,0,-1.9204,-1.9209,-1.9213,-1.9216,-1.9218,-1.9223,-1.9227,-1.9226,-1.923,-1.9234,-1.9238,-1.9244,-1.9248,-1.9258,-1.9259,-1.9264,-1.9263,-1.927,-1.9263,-1.9263,-1.9262,-1.9262,-1.9262,-1.9271,-1.9271,-1.9271,-1.9272,0,-1.9219,-1.9219,-1.9223,-1.9229,-1.9232,-1.9236,-1.924,-1.9243,-1.9243,-1.9247,-1.9253,-1.9257,-1.9264,-1.9269,-1.9275,-1.9276,-1.9274,-1.9274,-1.9276,-1.9275,-1.9275,-1.9275,-1.9253,-1.9273,-1.9273,-1.9273,-1.9273,-1.9273,-1.9229,-1.9234,-1.9237,-1.9243,-1.9245,-1.9249,-1.9254,-1.9255,-1.926,-1.9266,-1.9266,-1.9273,-1.9276,-1.9283,-1.9286,-1.9291,-1.9288,-1.9291,-1.9291,-1.9292,-1.9292,-1.9275,-1.9292,-1.9292,-1.9292,-1.9292,-1.9292,0,-1.9243,-1.9245,-1.925,-1.9256,-1.926,-1.9259,-1.9263,-1.9267,-1.9273,-1.9276,-1.9281,-1.9288,-1.9294,-1.9296,-1.9302,-1.9306,-1.9305,-1.9307,-1.9307,-1.9307,-1.9294,-1.9292,-1.9308,-1.9308,-1.9308,-1.9308,-1.9308,-1.9308,-1.9251,-1.9259,-1.9259,-1.9269,-1.9271,-1.9278,-1.928,-1.9284,-1.9287,-1.9295,-1.93,-1.9302,-1.9305,-1.9311,-1.9317,-1.9317,-1.9319,-1.9322,-1.9322,-1.931,-1.9308,-1.9306,-1.9304,-1.9322,-1.9322,-1.9334,-1.9334,-1.9334]},{"header":{"parameterUnit":"m.s-1","parameterCategory":1,"la1":30.2991,"la2":30.254,"lo1":-89.0895,"lo2":-89.0444,"dy":0.0017,"dx":0.0017,"nx":28,"ny":28,"refTime":"2025-03-13T21:00:00:Z","depth":0,"parameterNumber":3,"parameterNumberName":"V-component_of_WINDS"},"data":[0,0,0,0,0,0,0,0,0,0,0,0,0,0,0,0,0,0,0,0,0,0,0,0,0,0,0,0,0,0,0,0,0,0,0,0,0,0,0,0,0,0,0,0,0,0,0,0,0,0,0,0,0,0,0,0,0,0,2.4428,2.4428,0,2.4441,2.4441,2.4442,2.4424,2.4424,2.4423,2.4422,2.4435,2.4436,2.4437,0,0,0,0,0,0,0,0,0,0,0,0,0,2.4386,2.4387,2.4428,2.4428,2.4428,2.4441,2.4441,2.4442,2.4424,2.4424,2.4423,2.4422,2.4435,2.4436,2.4437,0,0,0,0,0,0,0,0,0,0,0,0,0,2.4403,2.4388,2.4428,2.4421,2.442,2.4441,2.4441,2.4442,2.4424,2.4424,2.4423,2.4422,2.4435,2.4436,2.4437,2.4465,0,0,2.4442,2.4442,0,0,0,0,0,0,0,0,2.4402,2.4404,2.4422,2.4421,2.4421,2.443,2.4432,2.4449,2.4425,2.4423,2.4422,2.4421,2.4434,2.4436,2.444,2.4465,2.4466,2.4442,2.4442,2.4443,2.4443,0,0,0,0,0,0,0,2.4401,2.4403,2.4433,2.4422,2.4422,2.4417,2.4419,2.4435,2.4434,2.4423,2.4422,2.4424,2.4434,2.4439,2.444,2.4466,2.4442,2.4443,2.4444,2.4444,2.4516,2.4517,0,0,0,0,0,0,2.44,2.4403,2.4432,2.4433,2.4409,2.4419,2.442,2.4428,2.4433,2.4433,2.4425,2.4423,2.4437,2.4439,2.4441,2.4474,2.4443,2.4444,2.4445,2.4515,2.4516,2.4518,0,0,0,0,0,0,2.44,2.4403,2.4432,2.4418,2.4421,2.4421,2.443,2.4429,2.4434,2.4435,2.4434,2.443,2.4436,2.4439,2.4459,2.4474,2.4445,2.4446,2.4514,2.4515,2.4517,2.4541,0,0,0,0,0,0,2.4398,2.4403,2.4413,2.4418,2.4422,2.445,2.443,2.443,2.4436,2.4434,2.444,2.4439,2.4436,2.4457,2.4461,2.4476,2.4447,2.4512,2.4515,2.4516,2.4539,2.4543,2.4547,0,0,0,0,0,2.4397,2.4419,2.4414,2.4418,2.4435,2.4451,2.4453,2.4449,2.4438,2.4448,2.4449,2.4439,2.4472,2.446,2.4463,2.4479,2.4511,2.4514,2.4516,2.4537,2.4542,2.4547,0,0,0,0,0,0,2.4415,2.4419,2.4414,2.4438,2.4445,2.4448,2.4461,2.4455,2.4464,2.4462,2.4455,2.4457,2.4479,2.4481,2.4467,2.4507,2.449,2.4493,2.4505,2.451,2.4514,2.4513,2.4449,0,0,0,0,0,2.4422,2.4435,2.4438,2.4459,2.4463,2.4462,2.4469,2.4465,2.4471,2.4474,2.4476,2.4482,2.4494,2.4502,2.4513,2.4539,2.4541,2.4552,2.4556,2.4559,2.4562,2.4578,2.4583,2.4525,2.4525,2.4525,0,0,2.4436,2.444,2.4449,2.4463,2.4468,2.4482,2.4464,2.4479,2.449,2.4476,2.4496,2.4498,2.4504,2.4529,2.4539,2.4531,2.4579,2.4562,2.4565,2.4566,2.4581,2.4586,2.4591,2.4527,2.4527,2.4527,0,0,2.4469,2.4473,2.4492,2.4497,2.4505,2.4504,2.4509,2.4514,2.4515,2.4535,2.4526,2.4538,2.4558,2.4564,2.4569,2.4607,2.4599,2.461,2.4632,2.4647,2.4651,2.4655,2.467,2.4675,2.4613,2.4613,2.4613,0,2.4486,2.4507,2.4502,2.4519,2.4526,2.4515,2.4534,2.4539,2.455,2.4555,2.4546,2.4572,2.4576,2.4602,2.4611,2.4615,2.4621,2.461,2.4651,2.4655,2.4659,2.4672,2.4677,2.4615,2.4615,2.4615,2.4614,0,2.4527,2.4542,2.4556,2.4568,2.4576,2.4594,2.4593,2.4602,2.4598,2.4598,2.4619,2.4624,2.4636,2.4642,2.4637,2.4667,2.4662,2.4652,2.4635,2.4666,2.4678,2.4683,2.4617,2.4616,2.4616,2.4616,0,0,2.4571,2.4582,2.4587,2.4593,2.4601,2.4612,2.463,2.4643,2.4651,2.4659,2.4674,2.4692,2.4684,2.469,2.4686,2.47,2.473,2.4688,2.4688,2.4696,2.4765,2.4773,2.4779,2.4725,2.4726,2.4727,2.4765,0,2.4605,2.4636,2.4634,2.4663,2.4677,2.4668,2.4684,2.469,2.4692,2.4704,2.4705,2.4719,2.4705,2.471,2.4722,2.4724,2.4744,2.4721,2.4739,2.474,2.4738,2.4785,2.4793,2.4829,2.4769,2.477,2.4771,0,2.4649,2.466,2.4691,2.4699,2.4705,2.4719,2.4731,2.4743,2.4751,2.4751,2.4759,2.4753,2.4771,2.4754,2.4779,2.4764,2.4771,2.4773,2.4775,2.4776,2.4757,2.4789,2.484,2.4846,2.4778,2.4778,2.4777,0,2.4679,2.4701,2.4723,2.4729,2.4738,2.4748,2.4752,2.476,2.4768,2.4778,2.4784,2.4796,2.4803,2.4813,2.4811,2.4798,2.4837,2.482,2.4838,2.4838,2.4847,2.4846,2.4901,2.4851,2.4851,2.485,2.485,0,2.4718,2.4737,2.4737,2.4751,2.4773,2.477,2.4792,2.4795,2.4802,2.4816,2.4808,2.4822,2.4818,2.4831,2.483,2.4852,2.4855,2.4855,2.4855,2.4857,2.4857,2.4862,2.4859,2.4852,2.4852,2.4851,2.4851,0,2.4755,2.4756,2.478,2.4787,2.4789,2.4805,2.4812,2.4825,2.4826,2.4844,2.4848,2.485,2.4865,2.4864,2.4881,2.4881,2.4908,2.4904,2.4905,2.4905,2.4924,2.4922,2.4984,2.4992,2.4936,2.4936,2.4937,0,2.478,2.4795,2.4805,2.4814,2.482,2.4834,2.4843,2.4841,2.4851,2.4862,2.4874,2.4889,2.4901,2.4926,2.4929,2.4942,2.4939,2.496,2.4941,2.4943,2.494,2.494,2.4942,2.4963,2.4964,2.4964,2.4965,0,2.4825,2.4825,2.4838,2.4852,2.4863,2.4874,2.4884,2.4892,2.4891,2.4902,2.4918,2.4927,2.4946,2.4961,2.4974,2.4978,2.4972,2.4971,2.4976,2.4978,2.4979,2.498,2.4916,2.4969,2.4969,2.4969,2.4968,2.4968,2.4857,2.4871,2.488,2.4896,2.4903,2.4913,2.4926,2.493,2.4943,2.4959,2.4956,2.4975,2.4983,2.5001,2.5006,2.5021,2.5013,2.5021,2.5023,2.5025,2.5027,2.4976,2.5023,2.5023,2.5023,2.5023,2.5023,0,2.4902,2.4908,2.4923,2.4937,2.495,2.4943,2.4954,2.4965,2.4982,2.499,2.5003,2.5022,2.5037,2.5042,2.5056,2.5067,2.5064,2.5071,2.5071,2.5072,2.5032,2.5027,2.5073,2.5073,2.5073,2.5073,2.5073,2.5073,2.4927,2.4951,2.4952,2.4979,2.4985,2.5003,2.501,2.502,2.5027,2.5049,2.5062,2.5065,2.5072,2.5088,2.5101,2.5102,2.5108,2.5117,2.5116,2.5079,2.5074,2.507,2.5065,2.5118,2.5118,2.5155,2.5155,2.5155]}]]